owner,sensor,date,latitude,longitude,vertical_datum,mass_concentration_of_oxygen_in_sea_water,qcFlag 
DISL,ioos:station:DISL:DISL:1,2019-03-01T03:30:00Z,30.2513,-88.0778,2.292,9.87,1111122 
DISL,ioos:station:DISL:DISL:1,2019-03-01T04:30:00Z,30.2513,-88.0778,2.248,9.6,1111122 
DISL,ioos:station:DISL:DISL:1,2019-03-01T05:30:00Z,30.2513,-88.0778,2.201,9.82,1111122 
DISL,ioos:station:DISL:DISL:1,2019-03-01T06:30:00Z,30.2513,-88.0778,2.175,9.65,1111122 
DISL,ioos:station:DISL:DISL:1,2019-03-01T07:30:00Z,30.2513,-88.0778,2.135,9.63,1111122 
DISL,ioos:station:DISL:DISL:1,2019-03-01T08:30:00Z,30.2513,-88.0778,2.064,9.62,1111122 
DISL,ioos:station:DISL:DISL:1,2019-03-01T09:30:00Z,30.2513,-88.0778,2.045,9.22,1111122 
DISL,ioos:station:DISL:DISL:1,2019-03-01T10:30:00Z,30.2513,-88.0778,2.026,9.72,1111122 
DISL,ioos:station:DISL:DISL:1,2019-03-01T11:30:00Z,30.2513,-88.0778,1.99,9.45,1111122 
DISL,ioos:station:DISL:DISL:1,2019-03-01T12:30:00Z,30.2513,-88.0778,2.01,9.46,1111122 
DISL,ioos:station:DISL:DISL:1,2019-03-01T13:30:00Z,30.2513,-88.0778,2.028,9.35,1111122 
DISL,ioos:station:DISL:DISL:1,2019-03-01T14:30:00Z,30.2513,-88.0778,2.055,9.14,1111122 
DISL,ioos:station:DISL:DISL:1,2019-03-01T15:30:00Z,30.2513,-88.0778,2.114,8.65,1111122 
DISL,ioos:station:DISL:DISL:1,2019-03-01T16:30:00Z,30.2513,-88.0778,2.152,8.79,1111122 
DISL,ioos:station:DISL:DISL:1,2019-03-01T17:30:00Z,30.2513,-88.0778,2.207,8.93,1111122 
DISL,ioos:station:DISL:DISL:1,2019-03-01T18:30:00Z,30.2513,-88.0778,2.243,9.63,1111122 
DISL,ioos:station:DISL:DISL:1,2019-03-01T20:00:00Z,30.2513,-88.0778,2.324,10.18,1111122 
DISL,ioos:station:DISL:DISL:1,2019-03-01T21:00:00Z,30.2513,-88.0778,2.391,9.37,1111122 
DISL,ioos:station:DISL:DISL:1,2019-03-01T22:00:00Z,30.2513,-88.0778,2.408,8.74,1111122 
DISL,ioos:station:DISL:DISL:1,2019-03-01T22:30:00Z,30.2513,-88.0778,2.39,9.49,1111122 
DISL,ioos:station:DISL:DISL:1,2019-03-01T23:30:00Z,30.2513,-88.0778,2.415,10.32,1111122 
DISL,ioos:station:DISL:DISL:1,2019-03-02T00:30:00Z,30.2513,-88.0778,2.422,10.42,1111122 
DISL,ioos:station:DISL:DISL:1,2019-03-02T01:30:00Z,30.2513,-88.0778,2.365,9.19,1111122 
DISL,ioos:station:DISL:DISL:1,2019-03-02T02:30:00Z,30.2513,-88.0778,2.357,7.99,1111122 
DISL,ioos:station:DISL:DISL:1,2019-03-02T03:30:00Z,30.2513,-88.0778,2.324,8.08,1111122 
DISL,ioos:station:DISL:DISL:1,2019-03-02T04:30:00Z,30.2513,-88.0778,2.277,7.98,1111122 
DISL,ioos:station:DISL:DISL:1,2019-03-02T05:30:00Z,30.2513,-88.0778,2.221,8.65,1111122 
DISL,ioos:station:DISL:DISL:1,2019-03-02T06:30:00Z,30.2513,-88.0778,2.177,8.71,1111122 
DISL,ioos:station:DISL:DISL:1,2019-03-02T07:30:00Z,30.2513,-88.0778,2.107,8.83,1111122 
DISL,ioos:station:DISL:DISL:1,2019-03-02T08:30:00Z,30.2513,-88.0778,2.091,8.68,1111122 
DISL,ioos:station:DISL:DISL:1,2019-03-02T09:30:00Z,30.2513,-88.0778,2.054,8.86,1111122 
DISL,ioos:station:DISL:DISL:1,2019-03-02T10:30:00Z,30.2513,-88.0778,2.036,8.87,1111122 
DISL,ioos:station:DISL:DISL:1,2019-03-02T11:30:00Z,30.2513,-88.0778,1.99,8.79,1111122 
DISL,ioos:station:DISL:DISL:1,2019-03-02T12:30:00Z,30.2513,-88.0778,1.998,9.1,1111122 
DISL,ioos:station:DISL:DISL:1,2019-03-02T13:30:00Z,30.2513,-88.0778,1.989,9.16,1111122 
DISL,ioos:station:DISL:DISL:1,2019-03-02T14:30:00Z,30.2513,-88.0778,2.024,8.86,1111122 
DISL,ioos:station:DISL:DISL:1,2019-03-02T15:30:00Z,30.2513,-88.0778,2.044,8.92,1111122 
DISL,ioos:station:DISL:DISL:1,2019-03-02T16:30:00Z,30.2513,-88.0778,2.101,8.83,1111122 
DISL,ioos:station:DISL:DISL:1,2019-03-02T17:30:00Z,30.2513,-88.0778,2.136,8.83,1111122 
DISL,ioos:station:DISL:DISL:1,2019-03-02T18:30:00Z,30.2513,-88.0778,2.182,9.03,1111122 
DISL,ioos:station:DISL:DISL:1,2019-03-02T19:30:00Z,30.2513,-88.0778,2.207,9.54,1111122 
DISL,ioos:station:DISL:DISL:1,2019-03-02T20:30:00Z,30.2513,-88.0778,2.267,9.24,1111122 
DISL,ioos:station:DISL:DISL:1,2019-03-02T21:30:00Z,30.2513,-88.0778,2.297,9.48,1111122 
DISL,ioos:station:DISL:DISL:1,2019-03-02T22:30:00Z,30.2513,-88.0778,2.343,9.12,1111122 
DISL,ioos:station:DISL:DISL:1,2019-03-02T23:30:00Z,30.2513,-88.0778,2.34,9.66,1111122 
DISL,ioos:station:DISL:DISL:1,2019-03-03T00:30:00Z,30.2513,-88.0778,2.36,9.68,1111122 
DISL,ioos:station:DISL:DISL:1,2019-03-03T01:30:00Z,30.2513,-88.0778,2.364,9.04,1111122 
DISL,ioos:station:DISL:DISL:1,2019-03-03T02:30:00Z,30.2513,-88.0778,2.354,9.3,1111122 
DISL,ioos:station:DISL:DISL:1,2019-03-03T03:30:00Z,30.2513,-88.0778,2.341,9.22,1111122 
DISL,ioos:station:DISL:DISL:1,2019-03-03T04:30:00Z,30.2513,-88.0778,2.32,9.44,1111122 
DISL,ioos:station:DISL:DISL:1,2019-03-03T05:30:00Z,30.2513,-88.0778,2.268,9.62,1111122 
DISL,ioos:station:DISL:DISL:1,2019-03-03T06:30:00Z,30.2513,-88.0778,2.203,9.36,1111122 
DISL,ioos:station:DISL:DISL:1,2019-03-03T07:30:00Z,30.2513,-88.0778,2.151,9.32,1111122 
DISL,ioos:station:DISL:DISL:1,2019-03-03T08:30:00Z,30.2513,-88.0778,2.103,9.11,1111122 
DISL,ioos:station:DISL:DISL:1,2019-03-03T09:30:00Z,30.2513,-88.0778,2.069,8.91,1111122 
DISL,ioos:station:DISL:DISL:1,2019-03-03T10:30:00Z,30.2513,-88.0778,2.043,8.99,1111122 
DISL,ioos:station:DISL:DISL:1,2019-03-03T11:30:00Z,30.2513,-88.0778,2.032,8.95,1111122 
DISL,ioos:station:DISL:DISL:1,2019-03-03T12:30:00Z,30.2513,-88.0778,2.016,8.97,1111122 
DISL,ioos:station:DISL:DISL:1,2019-03-03T13:30:00Z,30.2513,-88.0778,2.03,8.95,1111122 
DISL,ioos:station:DISL:DISL:1,2019-03-03T14:30:00Z,30.2513,-88.0778,2.062,8.94,1111122 
DISL,ioos:station:DISL:DISL:1,2019-03-03T15:30:00Z,30.2513,-88.0778,2.093,8.82,1111122 
DISL,ioos:station:DISL:DISL:1,2019-03-03T16:30:00Z,30.2513,-88.0778,2.126,8.6,1111122 
DISL,ioos:station:DISL:DISL:1,2019-03-03T17:30:00Z,30.2513,-88.0778,2.163,8.68,1111122 
DISL,ioos:station:DISL:DISL:1,2019-03-03T18:30:00Z,30.2513,-88.0778,2.23,8.54,1111122 
DISL,ioos:station:DISL:DISL:1,2019-03-03T19:30:00Z,30.2513,-88.0778,2.277,8.64,1111122 
DISL,ioos:station:DISL:DISL:1,2019-03-03T20:30:00Z,30.2513,-88.0778,2.355,8.91,1111122 
DISL,ioos:station:DISL:DISL:1,2019-03-03T21:30:00Z,30.2513,-88.0778,2.393,8.93,1111122 
DISL,ioos:station:DISL:DISL:1,2019-03-03T22:30:00Z,30.2513,-88.0778,2.461,9.05,1111122 
DISL,ioos:station:DISL:DISL:1,2019-03-03T23:30:00Z,30.2513,-88.0778,2.479,8.71,1111122 
DISL,ioos:station:DISL:DISL:1,2019-03-04T00:30:00Z,30.2513,-88.0778,2.49,8.72,1111122 
DISL,ioos:station:DISL:DISL:1,2019-03-04T01:30:00Z,30.2513,-88.0778,2.42,8.46,1111122 
DISL,ioos:station:DISL:DISL:1,2019-03-04T02:30:00Z,30.2513,-88.0778,2.445,8.28,1111122 
DISL,ioos:station:DISL:DISL:1,2019-03-04T03:30:00Z,30.2513,-88.0778,2.413,8.33,1111122 
DISL,ioos:station:DISL:DISL:1,2019-03-04T04:30:00Z,30.2513,-88.0778,2.387,8.17,1111122 
DISL,ioos:station:DISL:DISL:1,2019-03-04T05:30:00Z,30.2513,-88.0778,2.311,8.41,1111122 
DISL,ioos:station:DISL:DISL:1,2019-03-04T06:30:00Z,30.2513,-88.0778,2.277,8.45,1111122 
DISL,ioos:station:DISL:DISL:1,2019-03-04T07:30:00Z,30.2513,-88.0778,2.231,8.25,1111122 
DISL,ioos:station:DISL:DISL:1,2019-03-04T08:30:00Z,30.2513,-88.0778,2.193,8.37,1111122 
DISL,ioos:station:DISL:DISL:1,2019-03-04T09:30:00Z,30.2513,-88.0778,2.134,8.57,1111122 
DISL,ioos:station:DISL:DISL:1,2019-03-04T10:30:00Z,30.2513,-88.0778,2.08,8.49,1111122 
DISL,ioos:station:DISL:DISL:1,2019-03-04T11:30:00Z,30.2513,-88.0778,2.072,8.55,1111122 
DISL,ioos:station:DISL:DISL:1,2019-03-04T12:30:00Z,30.2513,-88.0778,2.043,8.65,1111122 
DISL,ioos:station:DISL:DISL:1,2019-03-04T13:30:00Z,30.2513,-88.0778,2.018,8.79,1111122 
DISL,ioos:station:DISL:DISL:1,2019-03-04T14:30:00Z,30.2513,-88.0778,2.017,8.87,1111122 
DISL,ioos:station:DISL:DISL:1,2019-03-04T15:30:00Z,30.2513,-88.0778,2.012,9.09,1111122 
DISL,ioos:station:DISL:DISL:1,2019-03-04T16:30:00Z,30.2513,-88.0778,2.01,9.02,1111122 
DISL,ioos:station:DISL:DISL:1,2019-03-04T17:30:00Z,30.2513,-88.0778,2.024,9.64,1111122 
DISL,ioos:station:DISL:DISL:1,2019-03-04T18:30:00Z,30.2513,-88.0778,2.059,9.35,1111122 
DISL,ioos:station:DISL:DISL:1,2019-03-04T19:30:00Z,30.2513,-88.0778,2.074,9.74,1111122 
DISL,ioos:station:DISL:DISL:1,2019-03-04T20:30:00Z,30.2513,-88.0778,2.065,9.73,1111122 
DISL,ioos:station:DISL:DISL:1,2019-03-04T21:30:00Z,30.2513,-88.0778,2.074,9.67,1111122 
DISL,ioos:station:DISL:DISL:1,2019-03-04T22:30:00Z,30.2513,-88.0778,2.112,9.27,1111122 
DISL,ioos:station:DISL:DISL:1,2019-03-04T23:30:00Z,30.2513,-88.0778,2.145,9.11,1111122 
DISL,ioos:station:DISL:DISL:1,2019-03-05T00:30:00Z,30.2513,-88.0778,2.168,9.03,1111122 
DISL,ioos:station:DISL:DISL:1,2019-03-05T01:30:00Z,30.2513,-88.0778,2.197,9.28,1111122 
DISL,ioos:station:DISL:DISL:1,2019-03-05T02:30:00Z,30.2513,-88.0778,2.225,9.49,1111122 
DISL,ioos:station:DISL:DISL:1,2019-03-05T03:30:00Z,30.2513,-88.0778,2.197,9.61,1111122 
DISL,ioos:station:DISL:DISL:1,2019-03-05T04:30:00Z,30.2513,-88.0778,2.234,9.63,1111122 
DISL,ioos:station:DISL:DISL:1,2019-03-05T05:30:00Z,30.2513,-88.0778,2.246,9.68,1111122 
DISL,ioos:station:DISL:DISL:1,2019-03-05T06:30:00Z,30.2513,-88.0778,2.217,9.6,1111122 
DISL,ioos:station:DISL:DISL:1,2019-03-05T07:30:00Z,30.2513,-88.0778,2.153,9.31,1111122 
DISL,ioos:station:DISL:DISL:1,2019-03-05T08:30:00Z,30.2513,-88.0778,2.068,9.5,1111122 
DISL,ioos:station:DISL:DISL:1,2019-03-05T09:30:00Z,30.2513,-88.0778,2.012,9.27,1111122 
DISL,ioos:station:DISL:DISL:1,2019-03-05T10:30:00Z,30.2513,-88.0778,1.994,9.35,1111122 
DISL,ioos:station:DISL:DISL:1,2019-03-05T11:30:00Z,30.2513,-88.0778,1.974,9.36,1111122 
DISL,ioos:station:DISL:DISL:1,2019-03-05T12:30:00Z,30.2513,-88.0778,1.932,9.36,1111122 
DISL,ioos:station:DISL:DISL:1,2019-03-05T13:30:00Z,30.2513,-88.0778,1.939,9.37,1111122 
DISL,ioos:station:DISL:DISL:1,2019-03-05T14:30:00Z,30.2513,-88.0778,1.924,9.38,1111122 
DISL,ioos:station:DISL:DISL:1,2019-03-05T15:30:00Z,30.2513,-88.0778,1.894,9.45,1111122 
DISL,ioos:station:DISL:DISL:1,2019-03-05T16:30:00Z,30.2513,-88.0778,1.917,9.42,1111122 
DISL,ioos:station:DISL:DISL:1,2019-03-05T17:30:00Z,30.2513,-88.0778,1.852,9.85,1111122 
DISL,ioos:station:DISL:DISL:1,2019-03-05T18:30:00Z,30.2513,-88.0778,1.967,9.96,1111122 
DISL,ioos:station:DISL:DISL:1,2019-03-05T19:30:00Z,30.2513,-88.0778,1.983,9.9,1111122 
DISL,ioos:station:DISL:DISL:1,2019-03-05T20:30:00Z,30.2513,-88.0778,2.005,9.88,1111122 
DISL,ioos:station:DISL:DISL:1,2019-03-05T22:30:00Z,30.2513,-88.0778,2.02,10.13,1111122 
DISL,ioos:station:DISL:DISL:1,2019-03-05T23:30:00Z,30.2513,-88.0778,2.06,10.1,1111122 
DISL,ioos:station:DISL:DISL:1,2019-03-06T00:30:00Z,30.2513,-88.0778,2.091,9.82,1111122 
DISL,ioos:station:DISL:DISL:1,2019-03-06T01:30:00Z,30.2513,-88.0778,2.123,10.03,1111122 
DISL,ioos:station:DISL:DISL:1,2019-03-06T02:30:00Z,30.2513,-88.0778,2.13,10.12,1111122 
DISL,ioos:station:DISL:DISL:1,2019-03-06T03:30:00Z,30.2513,-88.0778,2.139,10.56,1111122 
DISL,ioos:station:DISL:DISL:1,2019-03-06T04:30:00Z,30.2513,-88.0778,2.142,10.43,1111122 
DISL,ioos:station:DISL:DISL:1,2019-03-06T05:30:00Z,30.2513,-88.0778,2.114,10.53,1111122 
DISL,ioos:station:DISL:DISL:1,2019-03-06T06:30:00Z,30.2513,-88.0778,2.093,10.47,1111122 
DISL,ioos:station:DISL:DISL:1,2019-03-06T07:30:00Z,30.2513,-88.0778,2.048,9.99,1111122 
DISL,ioos:station:DISL:DISL:1,2019-03-06T08:30:00Z,30.2513,-88.0778,1.98,9.82,1111122 
DISL,ioos:station:DISL:DISL:1,2019-03-06T09:30:00Z,30.2513,-88.0778,1.909,9.78,1111122 
DISL,ioos:station:DISL:DISL:1,2019-03-06T10:30:00Z,30.2513,-88.0778,1.879,9.79,1111122 
DISL,ioos:station:DISL:DISL:1,2019-03-06T11:30:00Z,30.2513,-88.0778,1.867,9.79,1111122 
DISL,ioos:station:DISL:DISL:1,2019-03-06T12:30:00Z,30.2513,-88.0778,1.864,9.74,1111122 
DISL,ioos:station:DISL:DISL:1,2019-03-06T13:30:00Z,30.2513,-88.0778,1.832,9.79,1111122 
DISL,ioos:station:DISL:DISL:1,2019-03-06T14:30:00Z,30.2513,-88.0778,1.822,9.78,1111122 
DISL,ioos:station:DISL:DISL:1,2019-03-06T15:30:00Z,30.2513,-88.0778,1.829,9.82,1111122 
DISL,ioos:station:DISL:DISL:1,2019-03-06T16:30:00Z,30.2513,-88.0778,1.844,9.9,1111122 
DISL,ioos:station:DISL:DISL:1,2019-03-06T17:30:00Z,30.2513,-88.0778,1.871,9.98,1111122 
DISL,ioos:station:DISL:DISL:1,2019-03-06T18:30:00Z,30.2513,-88.0778,1.885,10.01,1111122 
DISL,ioos:station:DISL:DISL:1,2019-03-06T19:30:00Z,30.2513,-88.0778,1.897,9.94,1111122 
DISL,ioos:station:DISL:DISL:1,2019-03-06T20:30:00Z,30.2513,-88.0778,1.915,9.97,1111122 
DISL,ioos:station:DISL:DISL:1,2019-03-06T21:30:00Z,30.2513,-88.0778,1.956,10.23,1111122 
DISL,ioos:station:DISL:DISL:1,2019-03-06T22:30:00Z,30.2513,-88.0778,1.982,10.01,1111122 
DISL,ioos:station:DISL:DISL:1,2019-03-06T23:30:00Z,30.2513,-88.0778,1.998,9.91,1111122 
DISL,ioos:station:DISL:DISL:1,2019-03-07T00:30:00Z,30.2513,-88.0778,2.032,10.09,1111122 
DISL,ioos:station:DISL:DISL:1,2019-03-07T01:30:00Z,30.2513,-88.0778,2.053,9.96,1111122 
DISL,ioos:station:DISL:DISL:1,2019-03-07T02:30:00Z,30.2513,-88.0778,2.098,10.0,1111122 
DISL,ioos:station:DISL:DISL:1,2019-03-07T03:30:00Z,30.2513,-88.0778,2.111,10.36,1111122 
DISL,ioos:station:DISL:DISL:1,2019-03-07T04:30:00Z,30.2513,-88.0778,2.15,10.85,1111122 
DISL,ioos:station:DISL:DISL:1,2019-03-07T05:30:00Z,30.2513,-88.0778,2.143,10.71,1111122 
DISL,ioos:station:DISL:DISL:1,2019-03-07T06:30:00Z,30.2513,-88.0778,2.13,10.83,1111122 
DISL,ioos:station:DISL:DISL:1,2019-03-07T07:30:00Z,30.2513,-88.0778,2.109,10.82,1111122 
DISL,ioos:station:DISL:DISL:1,2019-03-07T08:30:00Z,30.2513,-88.0778,2.06,10.45,1111122 
DISL,ioos:station:DISL:DISL:1,2019-03-07T09:30:00Z,30.2513,-88.0778,2.011,9.81,1111122 
DISL,ioos:station:DISL:DISL:1,2019-03-07T10:30:00Z,30.2513,-88.0778,1.993,9.8,1111122 
DISL,ioos:station:DISL:DISL:1,2019-03-07T11:30:00Z,30.2513,-88.0778,1.962,9.88,1111122 
DISL,ioos:station:DISL:DISL:1,2019-03-07T12:30:00Z,30.2513,-88.0778,1.935,9.74,1111122 
DISL,ioos:station:DISL:DISL:1,2019-03-07T13:30:00Z,30.2513,-88.0778,1.936,9.72,1111122 
DISL,ioos:station:DISL:DISL:1,2019-03-07T14:30:00Z,30.2513,-88.0778,1.936,9.77,1111122 
DISL,ioos:station:DISL:DISL:1,2019-03-07T15:30:00Z,30.2513,-88.0778,1.938,9.74,1111122 
DISL,ioos:station:DISL:DISL:1,2019-03-07T16:30:00Z,30.2513,-88.0778,1.943,9.76,1111122 
DISL,ioos:station:DISL:DISL:1,2019-03-07T17:30:00Z,30.2513,-88.0778,1.96,9.81,1111122 
DISL,ioos:station:DISL:DISL:1,2019-03-07T18:30:00Z,30.2513,-88.0778,1.984,9.7,1111122 
DISL,ioos:station:DISL:DISL:1,2019-03-07T19:30:00Z,30.2513,-88.0778,2.0,9.69,1111122 
DISL,ioos:station:DISL:DISL:1,2019-03-07T20:30:00Z,30.2513,-88.0778,2.025,9.66,1111122 
DISL,ioos:station:DISL:DISL:1,2019-03-07T21:30:00Z,30.2513,-88.0778,2.03,9.81,1111122 
DISL,ioos:station:DISL:DISL:1,2019-03-07T22:30:00Z,30.2513,-88.0778,2.022,9.79,1111122 
DISL,ioos:station:DISL:DISL:1,2019-03-07T23:30:00Z,30.2513,-88.0778,2.052,9.81,1111122 
DISL,ioos:station:DISL:DISL:1,2019-03-08T00:30:00Z,30.2513,-88.0778,2.104,9.71,1111122 
DISL,ioos:station:DISL:DISL:1,2019-03-08T01:30:00Z,30.2513,-88.0778,2.126,9.67,1111122 
DISL,ioos:station:DISL:DISL:1,2019-03-08T02:30:00Z,30.2513,-88.0778,2.165,9.6,1111122 
DISL,ioos:station:DISL:DISL:1,2019-03-08T03:30:00Z,30.2513,-88.0778,2.184,9.51,1111122 
DISL,ioos:station:DISL:DISL:1,2019-03-08T04:30:00Z,30.2513,-88.0778,2.197,9.44,1111122 
DISL,ioos:station:DISL:DISL:1,2019-03-08T05:30:00Z,30.2513,-88.0778,2.201,9.49,1111122 
DISL,ioos:station:DISL:DISL:1,2019-03-08T06:30:00Z,30.2513,-88.0778,2.246,9.6,1111122 
DISL,ioos:station:DISL:DISL:1,2019-03-08T07:30:00Z,30.2513,-88.0778,2.233,9.54,1111122 
DISL,ioos:station:DISL:DISL:1,2019-03-08T08:30:00Z,30.2513,-88.0778,2.204,9.63,1111122 
DISL,ioos:station:DISL:DISL:1,2019-03-08T09:30:00Z,30.2513,-88.0778,2.183,9.57,1111122 
DISL,ioos:station:DISL:DISL:1,2019-03-08T10:30:00Z,30.2513,-88.0778,2.171,9.56,1111122 
DISL,ioos:station:DISL:DISL:1,2019-03-08T11:30:00Z,30.2513,-88.0778,2.141,9.48,1111122 
DISL,ioos:station:DISL:DISL:1,2019-03-08T12:30:00Z,30.2513,-88.0778,2.137,9.42,1111122 
DISL,ioos:station:DISL:DISL:1,2019-03-08T13:30:00Z,30.2513,-88.0778,2.139,9.4,1111122 
DISL,ioos:station:DISL:DISL:1,2019-03-08T17:00:00Z,30.2513,-88.0778,2.166,9.33,1111122 
DISL,ioos:station:DISL:DISL:1,2019-03-08T17:30:00Z,30.2513,-88.0778,2.181,9.3,1111122 
DISL,ioos:station:DISL:DISL:1,2019-03-08T18:30:00Z,30.2513,-88.0778,2.21,9.37,1111122 
DISL,ioos:station:DISL:DISL:1,2019-03-08T19:30:00Z,30.2513,-88.0778,2.219,9.39,1111122 
DISL,ioos:station:DISL:DISL:1,2019-03-08T20:30:00Z,30.2513,-88.0778,2.215,9.53,1111122 
DISL,ioos:station:DISL:DISL:1,2019-03-08T21:30:00Z,30.2513,-88.0778,2.219,9.44,1111122 
DISL,ioos:station:DISL:DISL:1,2019-03-08T22:30:00Z,30.2513,-88.0778,2.215,9.39,1111122 
DISL,ioos:station:DISL:DISL:1,2019-03-08T23:30:00Z,30.2513,-88.0778,2.187,9.12,1111122 
DISL,ioos:station:DISL:DISL:1,2019-03-09T00:30:00Z,30.2513,-88.0778,2.18,9.12,1111122 
DISL,ioos:station:DISL:DISL:1,2019-03-09T01:30:00Z,30.2513,-88.0778,2.203,9.15,1111122 
DISL,ioos:station:DISL:DISL:1,2019-03-09T02:30:00Z,30.2513,-88.0778,2.213,9.22,1111122 
DISL,ioos:station:DISL:DISL:1,2019-03-09T03:30:00Z,30.2513,-88.0778,2.232,9.17,1111122 
DISL,ioos:station:DISL:DISL:1,2019-03-09T04:30:00Z,30.2513,-88.0778,2.259,8.91,1111122 
DISL,ioos:station:DISL:DISL:1,2019-03-09T05:30:00Z,30.2513,-88.0778,2.284,8.93,1111122 
DISL,ioos:station:DISL:DISL:1,2019-03-09T06:30:00Z,30.2513,-88.0778,2.305,9.16,1111122 
DISL,ioos:station:DISL:DISL:1,2019-03-09T07:30:00Z,30.2513,-88.0778,2.324,9.15,1111122 
DISL,ioos:station:DISL:DISL:1,2019-03-09T08:30:00Z,30.2513,-88.0778,2.315,9.2,1111122 
DISL,ioos:station:DISL:DISL:1,2019-03-09T09:30:00Z,30.2513,-88.0778,2.294,9.18,1111122 
DISL,ioos:station:DISL:DISL:1,2019-03-09T10:30:00Z,30.2513,-88.0778,2.263,9.11,1111122 
DISL,ioos:station:DISL:DISL:1,2019-03-09T11:30:00Z,30.2513,-88.0778,2.255,9.06,1111122 
DISL,ioos:station:DISL:DISL:1,2019-03-09T12:30:00Z,30.2513,-88.0778,2.244,9.02,1111122 
DISL,ioos:station:DISL:DISL:1,2019-03-09T13:30:00Z,30.2513,-88.0778,2.242,9.05,1111122 
DISL,ioos:station:DISL:DISL:1,2019-03-09T14:30:00Z,30.2513,-88.0778,2.253,9.0,1111122 
DISL,ioos:station:DISL:DISL:1,2019-03-09T15:30:00Z,30.2513,-88.0778,2.267,8.96,1111122 
DISL,ioos:station:DISL:DISL:1,2019-03-09T16:30:00Z,30.2513,-88.0778,2.299,9.03,1111122 
DISL,ioos:station:DISL:DISL:1,2019-03-09T17:30:00Z,30.2513,-88.0778,2.297,8.97,1111122 
DISL,ioos:station:DISL:DISL:1,2019-03-09T18:30:00Z,30.2513,-88.0778,2.303,8.99,1111122 
DISL,ioos:station:DISL:DISL:1,2019-03-09T19:30:00Z,30.2513,-88.0778,2.335,8.96,1111122 
DISL,ioos:station:DISL:DISL:1,2019-03-09T20:30:00Z,30.2513,-88.0778,2.332,9.03,1111122 
DISL,ioos:station:DISL:DISL:1,2019-03-09T21:30:00Z,30.2513,-88.0778,2.329,8.94,1111122 
DISL,ioos:station:DISL:DISL:1,2019-03-09T22:30:00Z,30.2513,-88.0778,2.352,9.04,1111122 
DISL,ioos:station:DISL:DISL:1,2019-03-09T23:30:00Z,30.2513,-88.0778,2.344,8.97,1111122 
DISL,ioos:station:DISL:DISL:1,2019-03-10T00:30:00Z,30.2513,-88.0778,2.316,8.9,1111122 
DISL,ioos:station:DISL:DISL:1,2019-03-10T01:30:00Z,30.2513,-88.0778,2.311,8.91,1111122 
DISL,ioos:station:DISL:DISL:1,2019-03-10T02:30:00Z,30.2513,-88.0778,2.296,8.87,1111122 
DISL,ioos:station:DISL:DISL:1,2019-03-10T03:30:00Z,30.2513,-88.0778,2.316,8.85,1111122 
DISL,ioos:station:DISL:DISL:1,2019-03-10T04:30:00Z,30.2513,-88.0778,2.3,8.83,1111122 
DISL,ioos:station:DISL:DISL:1,2019-03-10T05:30:00Z,30.2513,-88.0778,2.313,8.78,1111122 
DISL,ioos:station:DISL:DISL:1,2019-03-10T06:30:00Z,30.2513,-88.0778,2.304,8.83,1111122 
DISL,ioos:station:DISL:DISL:1,2019-03-10T07:30:00Z,30.2513,-88.0778,2.316,8.88,1111122 
DISL,ioos:station:DISL:DISL:1,2019-03-10T08:30:00Z,30.2513,-88.0778,2.33,8.85,1111122 
DISL,ioos:station:DISL:DISL:1,2019-03-10T09:30:00Z,30.2513,-88.0778,2.332,8.81,1111122 
DISL,ioos:station:DISL:DISL:1,2019-03-10T10:30:00Z,30.2513,-88.0778,2.325,8.83,1111122 
DISL,ioos:station:DISL:DISL:1,2019-03-10T11:30:00Z,30.2513,-88.0778,2.311,8.88,1111122 
DISL,ioos:station:DISL:DISL:1,2019-03-10T12:30:00Z,30.2513,-88.0778,2.313,8.82,1111122 
DISL,ioos:station:DISL:DISL:1,2019-03-10T13:30:00Z,30.2513,-88.0778,2.323,8.84,1111122 
DISL,ioos:station:DISL:DISL:1,2019-03-10T14:30:00Z,30.2513,-88.0778,2.347,8.67,1111122 
DISL,ioos:station:DISL:DISL:1,2019-03-10T15:30:00Z,30.2513,-88.0778,2.366,8.56,1111122 
DISL,ioos:station:DISL:DISL:1,2019-03-10T16:30:00Z,30.2513,-88.0778,2.367,8.54,1111122 
DISL,ioos:station:DISL:DISL:1,2019-03-10T17:30:00Z,30.2513,-88.0778,2.39,8.69,1111122 
DISL,ioos:station:DISL:DISL:1,2019-03-10T19:00:00Z,30.2513,-88.0778,2.377,8.45,1111122 
DISL,ioos:station:DISL:DISL:1,2019-03-10T20:00:00Z,30.2513,-88.0778,2.366,8.88,1111122 
DISL,ioos:station:DISL:DISL:1,2019-03-10T21:00:00Z,30.2513,-88.0778,2.343,8.92,1111122 
DISL,ioos:station:DISL:DISL:1,2019-03-10T22:00:00Z,30.2513,-88.0778,2.307,8.9,1111122 
DISL,ioos:station:DISL:DISL:1,2019-03-11T04:30:00Z,30.2513,-88.0778,2.161,8.8,1111122 
DISL,ioos:station:DISL:DISL:1,2019-03-11T05:30:00Z,30.2513,-88.0778,2.178,8.79,1111122 
DISL,ioos:station:DISL:DISL:1,2019-03-11T06:30:00Z,30.2513,-88.0778,2.189,8.98,1111122 
DISL,ioos:station:DISL:DISL:1,2019-03-11T07:30:00Z,30.2513,-88.0778,2.174,8.85,1111122 
DISL,ioos:station:DISL:DISL:1,2019-03-11T08:30:00Z,30.2513,-88.0778,2.195,8.94,1111122 
DISL,ioos:station:DISL:DISL:1,2019-03-11T09:30:00Z,30.2513,-88.0778,2.214,8.97,1111122 
DISL,ioos:station:DISL:DISL:1,2019-03-11T10:30:00Z,30.2513,-88.0778,2.215,8.95,1111122 
DISL,ioos:station:DISL:DISL:1,2019-03-11T11:30:00Z,30.2513,-88.0778,2.231,9.09,1111122 
DISL,ioos:station:DISL:DISL:1,2019-03-11T12:30:00Z,30.2513,-88.0778,2.247,9.05,1111122 
DISL,ioos:station:DISL:DISL:1,2019-03-11T13:30:00Z,30.2513,-88.0778,2.26,8.95,1111122 
DISL,ioos:station:DISL:DISL:1,2019-03-11T14:30:00Z,30.2513,-88.0778,2.294,8.76,1111122 
DISL,ioos:station:DISL:DISL:1,2019-03-11T15:30:00Z,30.2513,-88.0778,2.3,8.44,1111122 
DISL,ioos:station:DISL:DISL:1,2019-03-11T16:30:00Z,30.2513,-88.0778,2.322,8.38,1111122 
DISL,ioos:station:DISL:DISL:1,2019-03-11T17:30:00Z,30.2513,-88.0778,2.351,8.77,1111122 
DISL,ioos:station:DISL:DISL:1,2019-03-11T19:00:00Z,30.2513,-88.0778,2.347,8.84,1111122 
DISL,ioos:station:DISL:DISL:1,2019-03-11T19:30:00Z,30.2513,-88.0778,2.356,8.52,1111122 
DISL,ioos:station:DISL:DISL:1,2019-03-11T20:30:00Z,30.2513,-88.0778,2.33,8.27,1111122 
DISL,ioos:station:DISL:DISL:1,2019-03-11T21:30:00Z,30.2513,-88.0778,2.311,7.94,1111122 
DISL,ioos:station:DISL:DISL:1,2019-03-11T22:30:00Z,30.2513,-88.0778,2.295,8.72,1111122 
DISL,ioos:station:DISL:DISL:1,2019-03-11T23:30:00Z,30.2513,-88.0778,2.261,8.65,1111122 
DISL,ioos:station:DISL:DISL:1,2019-03-12T00:30:00Z,30.2513,-88.0778,2.16,8.52,1111122 
DISL,ioos:station:DISL:DISL:1,2019-03-12T01:30:00Z,30.2513,-88.0778,2.13,8.41,1111122 
DISL,ioos:station:DISL:DISL:1,2019-03-12T02:30:00Z,30.2513,-88.0778,2.08,8.41,1111122 
DISL,ioos:station:DISL:DISL:1,2019-03-12T03:30:00Z,30.2513,-88.0778,2.1,8.49,1111122 
DISL,ioos:station:DISL:DISL:1,2019-03-12T04:30:00Z,30.2513,-88.0778,2.078,8.56,1111122 
DISL,ioos:station:DISL:DISL:1,2019-03-12T05:30:00Z,30.2513,-88.0778,2.051,8.62,1111122 
DISL,ioos:station:DISL:DISL:1,2019-03-12T06:30:00Z,30.2513,-88.0778,2.02,8.57,1111122 
DISL,ioos:station:DISL:DISL:1,2019-03-12T07:30:00Z,30.2513,-88.0778,2.032,8.62,1111122 
DISL,ioos:station:DISL:DISL:1,2019-03-12T08:30:00Z,30.2513,-88.0778,2.032,8.63,1111122 
DISL,ioos:station:DISL:DISL:1,2019-03-12T09:30:00Z,30.2513,-88.0778,2.034,8.63,1111122 
DISL,ioos:station:DISL:DISL:1,2019-03-12T10:30:00Z,30.2513,-88.0778,2.059,8.5,1111122 
DISL,ioos:station:DISL:DISL:1,2019-03-12T11:30:00Z,30.2513,-88.0778,2.086,8.62,1111122 
DISL,ioos:station:DISL:DISL:1,2019-03-12T12:30:00Z,30.2513,-88.0778,2.093,8.69,1111122 
DISL,ioos:station:DISL:DISL:1,2019-03-12T13:30:00Z,30.2513,-88.0778,2.138,8.69,1111122 
DISL,ioos:station:DISL:DISL:1,2019-03-12T14:30:00Z,30.2513,-88.0778,2.181,8.69,1111122 
DISL,ioos:station:DISL:DISL:1,2019-03-12T15:30:00Z,30.2513,-88.0778,2.23,8.65,1111122 
DISL,ioos:station:DISL:DISL:1,2019-03-12T16:30:00Z,30.2513,-88.0778,2.279,8.61,1111122 
DISL,ioos:station:DISL:DISL:1,2019-03-12T17:30:00Z,30.2513,-88.0778,2.324,8.62,1111122 
DISL,ioos:station:DISL:DISL:1,2019-03-12T18:30:00Z,30.2513,-88.0778,2.332,6.23,1111122 
DISL,ioos:station:DISL:DISL:1,2019-03-12T19:30:00Z,30.2513,-88.0778,2.357,7.45,1111122 